Terminal Aerodrome Forecast
Issued by NWS Milwaukee/Sullivan, WI

Home | Current Version | Previous Version | Text Only | Print | Product List | Glossary On
Versions: 1 2 3 4 5 6 7 8 9 10 11 12 13 14 15 16 17 18 19 20 21 22 23 24 25 26 27 28 29 30 31 32 33 34 35 36 37 38 39 40 41 42 43 44 45 46 47 48 49 50
000
FTUS43 KMKX 252046 AAA
TAFMKE
TAF AMD
KMKE 252046Z 2521/2624 04017G24KT P6SM SCT025
      TEMPO 2521/2524 BKN025
     FM260000 03013G20KT P6SM BKN025
     FM260400 04009G17KT P6SM BKN030
     FM260900 VRB03KT P6SM BKN035
     FM261600 19006KT P6SM OVC030
     FM261800 18007KT P6SM -SN OVC030
     FM262100 18008KT 2SM -SN OVC015=

USA.gov is the U.S. government's official web portal to all federal, state and local government web resources and services.